Greenville/Spartanburg, SC

12:49 AM EDT on June 27, 2017 (GMT -0400)
Greenville-Spartanburg International

Weather History for KGSP - November, 2011

Change the Weather History Date:

Saturday, November 12, 2011

  Actual Average Record
Temperature  
Mean Temperature 49 °F 54 °F  
Max Temperature 65 °F 65 °F 81 °F (1989)
Min Temperature 33 °F 42 °F 19 °F (1913)
Degree Days  
Heating Degree Days 16 12  
Month to date heating degree days 159 121  
Since 1 July heating degree days 342 291  
Cooling Degree Days 0 0  
Month to date cooling degree days 0 0  
Year to date cooling degree days 2047 1710  
Moisture  
Dew Point 28 °F    
Average Humidity 50    
Maximum Humidity 75    
Minimum Humidity 24    
Precipitation  
Precipitation 0.00 in 0.11 in 1.93 in (1992)
Month to date precipitation 0.81 1.33  
Year to date precipitation 38.41 40.71  
Snow  
Snow 0.00 in 0.00 in T in (1968)
Month to date snowfall 0.0 0.0  
Since 1 July snowfall 0.0 0.0  
Since 1 September snowfall 0.0 0.0  
Snow Depth 0.00 in    
Sea Level Pressure  
Sea Level Pressure 30.23 in    
Wind  
Wind Speed 5 mph (SW)    
Max Wind Speed 18 mph    
Max Gust Speed 23 mph    
Visibility 10 miles    
Events      
T = Trace of Precipitation, MM = Missing Value Source: NWS Daily Summary

Daily Weather History Graph

Daily Weather History Graph

Search for Another Location

Airport or City:

Trip Planner

Search our weather history database for the weather conditions in past years. The results will help you decide how hot, cold, wet, or windy it might be!

Date:

Astronomy

Nov. 12, 2011 Rise Set
Actual Time 6:59 AM EST 5:25 PM EST
Civil Twilight 6:33 AM EST 5:52 PM EST
Nautical Twilight 6:02 AM EST 6:22 PM EST
Astronomical Twilight 5:33 AM EST 6:52 PM EST
Moon 6:44 PM EST (11/12) 8:36 AM EST (11/12)
Length of Visible Light 11h 19m
Length of Day
10h 25m
Full, 97% of the Moon is Illuminated
Nov 12
Full
Nov 18
Last Quarter
Nov 25
New
Dec 2
First Quarter
Dec 10
Full

Hourly Weather History & Observations

Time (EST) Temp. Windchill Dew Point Humidity Pressure Visibility Wind Dir Wind Speed Gust Speed Precip Events Conditions
12:53 AM 37.9 °F 33.5 °F 25.0 °F 60% 30.18 in 10.0 mi SW 5.8 mph - N/A   Clear
1:53 AM 36.0 °F 33.3 °F 26.1 °F 67% 30.18 in 10.0 mi SW 3.5 mph - N/A   Clear
2:53 AM 35.1 °F - 25.0 °F 67% 30.19 in 10.0 mi Calm Calm - N/A   Clear
3:53 AM 36.0 °F - 25.0 °F 64% 30.19 in 10.0 mi Calm Calm - N/A   Clear
4:53 AM 35.1 °F - 26.1 °F 70% 30.20 in 10.0 mi Calm Calm - N/A   Clear
5:53 AM 36.0 °F - 25.0 °F 64% 30.22 in 10.0 mi Calm Calm - N/A   Clear
6:53 AM 33.8 °F - 26.6 °F 75% 30.22 in 10.0 mi Calm Calm - N/A   Clear
7:53 AM 37.0 °F - 26.1 °F 65% 30.26 in 10.0 mi Calm Calm - N/A   Clear
8:53 AM 43.0 °F - 28.9 °F 58% 30.27 in 10.0 mi Calm Calm - N/A   Clear
9:53 AM 50.0 °F - 30.0 °F 46% 30.28 in 10.0 mi SSW 4.6 mph - N/A   Clear
10:53 AM 57.0 °F - 28.9 °F 34% 30.27 in 10.0 mi SW 6.9 mph - N/A   Clear
11:53 AM 61.0 °F - 30.9 °F 32% 30.26 in 10.0 mi SW 9.2 mph - N/A   Clear
12:53 PM 64.0 °F - 27.0 °F 25% 30.23 in 10.0 mi SW 15.0 mph - N/A   Clear
1:53 PM 64.0 °F - 26.1 °F 24% 30.22 in 10.0 mi SSW 13.8 mph - N/A   Clear
2:53 PM 64.0 °F - 27.0 °F 25% 30.21 in 10.0 mi SW 12.7 mph 21.9 mph N/A   Clear
3:53 PM 63.0 °F - 26.1 °F 25% 30.21 in 10.0 mi WSW 12.7 mph - N/A   Clear
4:53 PM 59.0 °F - 27.0 °F 29% 30.22 in 10.0 mi SW 6.9 mph - N/A   Clear
5:53 PM 54.0 °F - 28.9 °F 38% 30.23 in 10.0 mi South 4.6 mph - N/A   Clear
6:53 PM 53.1 °F - 28.9 °F 40% 30.25 in 10.0 mi SSW 4.6 mph - N/A   Clear
7:53 PM 50.0 °F - 30.0 °F 46% 30.24 in 10.0 mi SSW 6.9 mph - N/A   Clear
8:53 PM 48.9 °F - 30.9 °F 50% 30.24 in 10.0 mi SSW 5.8 mph - N/A   Clear
9:53 PM 46.9 °F - 32.0 °F 56% 30.24 in 10.0 mi SSW 5.8 mph - N/A   Clear
10:53 PM 46.0 °F 43.1 °F 32.0 °F 58% 30.24 in 10.0 mi SSW 5.8 mph - N/A   Clear
11:53 PM 45.0 °F 43.5 °F 33.1 °F 63% 30.23 in 10.0 mi WSW 3.5 mph - N/A   Clear